Peoria, IL

7:06 PM CST on November 15, 2019 (GMT -0600)
Greater Peoria Regional

Weather History for KPIA - September, 2019

Change the Weather History Date:

Friday, September 6, 2019

  Actual Average Record
Temperature  
Mean Temperature 70 °F 70 °F  
Max Temperature 80 °F 81 °F 101 °F (1899)
Min Temperature 60 °F 59 °F 41 °F (1988)
Degree Days  
Heating Degree Days 0 1  
Month to date heating degree days 0 5  
Since 1 July heating degree days 0 11  
Cooling Degree Days 5 6  
Month to date cooling degree days 29 39  
Year to date cooling degree days 1011 946  
Growing Degree Days 20 (Base 50)    
Moisture  
Dew Point 61 °F    
Average Humidity 74    
Maximum Humidity 90    
Minimum Humidity 52    
Precipitation  
Precipitation 0.00 in 0.11 in 2.21 in (1911)
Month to date precipitation 0.62 0.67  
Year to date precipitation 34.14 25.62  
Snow  
Snow 0.00 in 0.00 in 0.00 in ()
Month to date snowfall 0.0 0.0  
Since 1 July snowfall 0.0 0.0  
Since 1 September snowfall 0.0 0.0  
Snow Depth 0.00 in    
Sea Level Pressure  
Sea Level Pressure 29.96 in    
Wind  
Wind Speed 6 mph ()    
Max Wind Speed 13 mph    
Max Gust Speed 22 mph    
Visibility 10.0 miles    
Events      
T = Trace of Precipitation, MM = Missing Value Source: Averaged Metar Reports

Daily Weather History Graph

Daily Weather History Graph

Search for Another Location

Airport or City:

Astronomy

Sep. 06, 2019 Rise Set
Actual Time 6:30 AM CDT 7:23 PM CDT
Civil Twilight 6:02 AM CDT 7:50 PM CDT
Nautical Twilight 5:29 AM CDT 8:23 PM CDT
Astronomical Twilight 4:55 AM CDT 8:57 PM CDT
Moon 2:41 PM CDT (9/6) No Moon Set
Length of Visible Light 13h 48m
Length of Day
12h 52m
First Quarter, 56% of the Moon is Illuminated
Sep 6
First Quarter
Sep 13
Full
Sep 21
Last Quarter
Sep 28
New
Oct 5
First Quarter

Hourly Weather History & Observations

Time (CDT) Temp. Dew Point Humidity Pressure Visibility Wind Dir Wind Speed Gust Speed Precip Events Conditions
12:54 AM 66.9 °F 59.0 °F 76% 29.98 in 10.0 mi South 8.1 mph - N/A   Mostly Cloudy
1:54 AM 66.9 °F 59.0 °F 76% 29.96 in 10.0 mi SSW 9.2 mph - N/A   Overcast
2:54 AM 66.0 °F 60.1 °F 81% 29.94 in 10.0 mi South 6.9 mph - N/A   Mostly Cloudy
3:54 AM 66.0 °F 60.1 °F 81% 29.92 in 10.0 mi SSW 8.1 mph - N/A   Mostly Cloudy
4:54 AM 66.0 °F 61.0 °F 84% 29.91 in 10.0 mi SSW 6.9 mph - N/A   Overcast
5:20 AM 66.0 °F 61.0 °F 84% 29.92 in 10.0 mi SSW 6.9 mph - N/A   Overcast
5:54 AM 66.9 °F 61.0 °F 81% 29.91 in 10.0 mi SW 5.8 mph - N/A   Overcast
6:45 AM 64.9 °F 61.0 °F 87% 29.92 in 10.0 mi SW 4.6 mph - N/A   Scattered Clouds
6:54 AM 66.0 °F 61.0 °F 84% 29.91 in 10.0 mi WSW 4.6 mph - N/A   Scattered Clouds
7:02 AM 66.0 °F 62.1 °F 87% 29.92 in 10.0 mi WSW 4.6 mph - N/A   Mostly Cloudy
7:30 AM 66.9 °F 62.1 °F 84% 29.92 in 10.0 mi SW 4.6 mph - N/A   Mostly Cloudy
7:38 AM 68.0 °F 62.1 °F 81% 29.92 in 10.0 mi SW 4.6 mph - N/A   Scattered Clouds
7:54 AM 69.1 °F 63.0 °F 81% 29.91 in 10.0 mi West 5.8 mph - N/A   Clear
8:54 AM 71.1 °F 64.9 °F 81% 29.93 in 10.0 mi NW 8.1 mph - N/A   Overcast
9:35 AM 72.0 °F 64.9 °F 78% 29.95 in 10.0 mi NNW 9.2 mph 19.6 mph N/A   Mostly Cloudy
9:54 AM 73.0 °F 64.9 °F 76% 29.94 in 10.0 mi NNW 6.9 mph - N/A   Mostly Cloudy
10:03 AM 72.0 °F 64.0 °F 76% 29.95 in 10.0 mi North 8.1 mph 18.4 mph N/A   Scattered Clouds
10:37 AM 73.9 °F 64.0 °F 71% 29.97 in 10.0 mi North 8.1 mph 16.1 mph N/A   Mostly Cloudy
10:54 AM 73.0 °F 63.0 °F 71% 29.96 in 10.0 mi North 10.4 mph 17.3 mph N/A   Mostly Cloudy
11:54 AM 73.9 °F 62.1 °F 66% 29.96 in 10.0 mi NW 8.1 mph - N/A   Overcast
12:54 PM 73.9 °F 63.0 °F 68% 29.98 in 10.0 mi Variable 6.9 mph - N/A   Overcast
1:16 PM 77.0 °F 62.1 °F 60% 29.99 in 10.0 mi Variable 5.8 mph 19.6 mph N/A   Scattered Clouds
1:54 PM 77.0 °F 62.1 °F 60% 29.98 in 10.0 mi NNW 8.1 mph - N/A   Overcast
2:54 PM 75.9 °F 61.0 °F 60% 29.97 in 10.0 mi NNW 10.4 mph 19.6 mph N/A   Mostly Cloudy
3:54 PM 79.0 °F 61.0 °F 54% 29.97 in 10.0 mi Variable 6.9 mph - N/A   Partly Cloudy
4:54 PM 79.0 °F 61.0 °F 54% 29.97 in 10.0 mi NNW 9.2 mph - N/A   Partly Cloudy
5:54 PM 78.1 °F 59.0 °F 52% 29.99 in 10.0 mi Variable 5.8 mph - N/A   Partly Cloudy
6:54 PM 75.0 °F 59.0 °F 57% 30.00 in 10.0 mi NNE 6.9 mph - N/A   Partly Cloudy
7:54 PM 71.1 °F 59.0 °F 66% 30.02 in 10.0 mi NNE 5.8 mph - N/A   Clear
8:54 PM 68.0 °F 59.0 °F 73% 30.04 in 10.0 mi ENE 8.1 mph - N/A   Partly Cloudy
9:54 PM 64.0 °F 57.0 °F 78% 30.06 in 10.0 mi ENE 5.8 mph - N/A   Clear
10:54 PM 63.0 °F 57.0 °F 81% 30.06 in 10.0 mi Calm Calm - N/A   Clear
11:54 PM 61.0 °F 57.0 °F 87% 30.06 in 10.0 mi Calm Calm - N/A   Clear